Wind_Speed
28 27 25 20 16 16 15 14 16 18 21 24 22 20 17 16 16 15 15 14 14 14 13 12 12 13 14 15 15 15 16 17 18 18 19 20 22 23 23 24 25 26 26 27
29 26 23 21 19 18 17 16 17 20 23 24 23 21 18 17 17 17 16 16 15 16 16 16 16 15 16 17 18 19 19 21 21 22 23 23 24 25 26 27 27 28 28 29
30 26 25 23 21 19 19 20 20 22 24 24 22 20 18 18 19 18 18 17 17 17 18 19 19 20 20 20 21 22 23 24 25 26 27 28 28 29 30 31 31 31 31 32
32 28 28 23 24 23 22 22 22 24 26 24 22 22 22 21 21 20 20 19 19 19 20 21 22 23 24 25 25 26 27 28 28 29 30 30 31 33 34 35 35 35 34 35
31 30 28 26 25 23 22 23 24 25 25 25 24 24 23 22 22 22 21 21 21 22 22 22 24 25 27 28 29 30 31 31 32 32 32 32 33 35 36 37 38 37 37 38
32 30 28 27 27 24 24 25 25 25 24 24 24 23 21 22 22 22 23 23 23 24 23 24 25 26 28 29 30 32 33 34 35 35 35 35 36 37 37 37 38 38 39 40
31 30 31 31 30 28 27 26 24 23 24 24 23 22 22 23 23 23 23 24 24 25 25 26 27 28 29 30 30 31 33 34 35 36 37 37 36 37 37 39 39 40 40 41
31 31 33 33 32 30 26 24 23 23 24 22 21 22 22 23 23 24 25 25 26 26 27 27 28 29 30 31 31 32 33 34 36 36 36 36 36 37 38 38 39 40 41 42
34 35 34 34 30 25 22 23 24 24 24 24 23 23 24 24 25 26 26 27 27 28 28 28 29 30 31 32 32 33 33 34 35 36 36 36 36 36 37 38 39 40 42 43
29 31 31 31 29 27 25 24 24 26 26 26 26 25 25 25 26 26 27 27 27 28 28 29 30 31 31 32 33 34 34 34 35 35 35 36 37 38 39 40 41 42 44 45
26 26 25 27 25 24 26 26 26 26 26 26 26 26 25 25 26 27 28 29 29 30 31 31 31 32 33 33 34 34 35 35 35 36 37 37 38 39 41 42 43 45 47 49
24 21 20 22 22 23 24 25 24 24 25 25 25 25 25 25 27 28 28 29 30 31 32 32 33 34 35 35 35 36 37 37 37 38 39 40 41 42 43 45 47 49 51 53
19 20 19 20 20 21 22 23 23 24 25 25 25 26 26 26 27 28 29 30 31 32 32 33 34 35 36 36 37 37 38 39 40 41 42 43 44 46 47 48 51 52 54 56
17 17 18 18 18 19 20 22 22 23 24 24 25 25 26 27 29 29 30 31 32 33 34 34 35 36 37 37 38 39 40 42 43 44 45 46 48 49 51 52 54 56 57 58
17 18 18 19 19 20 21 22 23 23 24 24 25 26 27 28 30 31 32 32 33 33 35 36 37 38 39 40 41 42 43 45 46 47 48 49 50 52 53 55 56 57 58 58
17 18 19 20 20 21 21 22 22 23 24 25 26 27 28 29 30 31 32 33 35 36 37 38 39 40 41 42 43 44 46 46 47 48 49 50 52 53 54 55 55 55 55 55
17 18 19 20 20 21 22 22 23 24 25 26 27 28 29 30 32 33 34 35 36 37 38 39 40 42 43 43 44 45 47 47 48 49 50 51 52 53 53 53 53 53 53 52
18 18 19 20 21 22 23 24 24 26 26 27 28 30 31 32 33 34 36 36 37 38 39 41 42 44 45 45 45 47 47 48 49 49 50 51 51 51 51 51 50 49 48 46
19 19 20 21 22 23 24 24 25 26 27 28 30 31 32 34 35 35 36 37 38 40 41 42 43 44 45 46 47 47 47 48 48 48 49 49 49 49 48 47 45 44 42 40
20 21 22 22 23 24 25 26 27 28 29 31 32 33 34 36 37 38 38 39 40 41 42 43 43 44 44 45 46 46 46 47 47 47 47 47 45 44 43 41 40 38 36 35
21 22 24 25 25 25 26 27 29 30 32 33 34 35 36 37 38 39 40 41 41 41 42 42 43 44 44 45 45 45 45 45 44 44 43 42 40 39 38 36 34 33 32 31
23 24 25 26 26 27 28 29 31 32 33 34 35 36 37 38 39 39 39 40 40 41 42 43 43 43 44 43 43 42 42 42 41 40 39 37 36 34 33 32 30 29 28 27
24 25 26 27 28 30 31 32 33 34 35 36 37 38 38 39 40 40 39 40 40 41 41 42 42 42 41 40 39 39 38 38 36 35 34 32 31 30 29 28 26 26 25 23
26 27 29 30 31 32 33 34 36 36 37 38 38 39 39 39 39 39 39 39 39 40 40 39 39 38 37 36 36 35 34 33 32 31 29 28 27 26 25 24 23 22 22 21
28 29 30 31 33 34 35 36 36 37 38 38 38 38 38 38 38 37 38 38 37 36 36 36 35 34 34 33 32 31 30 29 28 28 26 25 24 23 22 22 21 20 19 19
30 31 32 33 34 35 36 36 37 37 38 38 37 36 35 36 35 35 35 34 34 33 33 32 32 31 31 30 29 29 28 27 26 25 24 23 22 21 20 20 19 18 17 17
32 32 33 34 34 34 34 35 36 36 35 36 35 34 34 34 33 32 31 31 31 30 30 30 29 28 28 28 27 26 25 25 24 23 22 21 20 20 19 18 17 16 16 16
Wind_Direction
241 245 258 268 273 268 266 264 260 268 271 276 280 284 289 293 294 291 287 283 285 282 278 276 274 274 273 272 270 271 270 271 269 267 269 270 271 272 273 275 276 278 279 280
240 240 251 258 260 260 263 264 264 266 269 270 275 281 286 290 290 287 287 284 281 282 281 280 279 280 277 276 274 273 273 273 273 274 273 273 274 277 278 278 278 279 281 282
236 238 245 251 253 256 261 262 263 264 266 271 275 280 283 285 288 288 286 285 281 279 279 280 280 282 283 283 280 279 278 277 276 278 278 277 276 276 277 277 278 278 279 281
234 237 243 245 245 247 251 254 258 264 266 271 274 277 278 282 284 286 286 284 282 281 282 280 279 280 281 282 282 281 281 281 282 281 281 280 279 279 278 278 278 279 279 281
233 239 245 245 244 246 249 253 260 263 265 268 273 275 276 279 280 282 284 283 282 282 284 284 283 281 280 281 281 282 281 280 282 281 281 282 282 282 281 279 280 280 280 282
229 236 240 244 246 246 250 251 258 263 264 268 271 274 275 276 277 279 282 284 283 282 284 285 284 284 283 282 283 282 282 281 282 281 282 282 282 282 282 282 283 283 284 284
230 236 241 245 250 250 250 253 258 263 266 272 273 275 275 276 277 278 281 283 284 284 285 286 285 285 284 284 285 285 285 284 285 285 283 284 285 285 284 283 283 285 285 285
234 235 241 247 251 248 249 253 256 264 269 271 273 274 276 278 279 280 282 284 285 285 285 286 286 286 286 286 286 287 287 285 285 285 284 285 285 286 286 286 286 286 287 287
230 233 239 246 249 245 249 256 262 265 270 272 272 274 277 279 281 283 284 284 284 285 285 286 286 287 287 286 287 288 288 288 287 287 286 286 287 287 288 289 289 289 290 290
229 229 236 242 248 253 257 261 264 266 269 272 274 276 277 279 282 283 282 284 285 286 286 286 286 286 286 287 288 288 288 287 287 288 289 289 290 291 291 292 292 293 293 293
236 240 244 248 250 251 253 259 264 267 269 272 275 277 279 280 281 282 283 284 285 286 286 286 286 287 288 289 290 290 290 291 291 291 291 291 292 292 293 293 294 294 294 294
242 243 246 249 252 254 255 261 265 268 271 273 275 277 280 281 282 282 284 285 286 287 288 287 288 288 289 289 290 291 291 291 291 291 292 292 293 293 294 294 295 295 296 296
250 249 253 253 256 259 261 263 266 268 271 274 276 278 281 282 284 285 287 288 288 289 289 290 290 290 290 290 291 292 292 292 292 292 292 293 294 294 295 295 296 296 296 297
258 259 261 263 264 265 267 268 270 274 276 277 279 280 282 283 285 287 289 290 290 292 292 292 293 293 291 292 292 293 294 294 294 293 293 294 294 295 296 296 297 298 298 298
261 264 266 267 266 268 269 271 273 276 277 277 279 281 283 284 286 287 289 291 291 293 294 294 295 295 295 295 296 296 296 296 295 294 295 295 296 297 298 298 299 299 299 299
260 262 266 268 270 271 273 274 276 277 279 279 280 281 282 285 287 289 291 292 292 294 295 296 296 295 295 296 297 297 297 297 296 296 297 298 299 299 300 300 300 300 300 300
263 265 268 270 271 273 274 276 277 278 279 280 282 283 285 287 288 291 292 293 294 295 296 296 296 295 296 297 298 298 298 298 299 300 301 301 302 302 301 301 301 301 301 301
267 269 271 272 274 276 278 279 279 280 281 283 285 286 288 289 291 293 294 294 295 296 296 296 297 297 297 298 299 300 300 301 301 302 303 303 303 303 302 302 302 302 301 301
271 272 274 276 278 280 281 281 282 282 284 285 287 288 289 291 292 294 294 295 296 296 297 297 297 298 298 299 300 301 302 302 303 303 303 304 304 304 303 303 303 302 302 301
273 275 277 278 280 282 282 283 284 285 287 288 289 290 291 291 292 293 294 296 297 297 298 298 299 300 301 303 303 304 303 303 303 303 304 304 304 304 304 304 304 304 303 303
274 277 279 281 281 282 284 284 286 287 288 288 290 291 292 292 294 296 296 297 298 298 299 301 301 302 303 303 303 303 303 303 304 305 305 305 305 305 305 305 305 305 305 305
275 277 279 280 281 282 285 286 288 289 291 292 292 293 294 295 296 297 298 299 299 300 301 302 302 303 303 304 304 305 305 305 305 305 305 306 305 306 306 306 306 306 307 308
277 278 280 282 284 286 288 289 290 292 293 294 295 296 297 298 298 300 300 300 301 301 302 303 303 304 304 305 305 306 306 306 306 306 306 307 307 307 308 308 308 309 310 310
280 281 282 284 286 287 289 291 292 293 294 295 296 297 298 298 299 300 300 300 301 302 303 304 304 304 304 305 306 307 307 308 307 308 308 309 309 309 309 310 311 312 312 314
281 282 283 284 285 287 289 291 292 294 294 295 297 297 298 299 300 300 300 301 301 302 303 305 305 305 304 305 307 308 308 308 309 309 309 310 311 311 312 312 313 314 315 317
282 283 284 285 286 287 289 291 292 294 296 297 298 298 298 300 300 300 299 299 299 301 302 303 304 305 305 306 307 308 307 308 309 310 310 310 311 311 312 312 313 314 316 319
282 282 283 284 286 287 290 292 294 295 296 297 298 297 298 300 300 299 299 299 300 302 303 303 305 306 307 308 309 309 309 309 310 310 310 311 312 312 312 313 315 316 316 318
Height
5837 5838 5837 5837 5838 5839 5838 5839 5842 5841 5839 5837 5836 5836 5835 5835 5836 5836 5836 5836 5835 5835 5835 5835 5836 5837 5837 5837 5838 5838 5838 5839 5838 5838 5839 5840 5840 5840 5840 5840 5840 5839 5839 5838
5829 5832 5833 5833 5834 5835 5835 5836 5837 5836 5834 5832 5832 5831 5832 5832 5832 5832 5832 5832 5832 5832 5832 5832 5832 5833 5833 5834 5834 5834 5834 5833 5833 5833 5834 5834 5834 5833 5833 5832 5832 5831 5831 5830
5823 5826 5826 5828 5829 5829 5830 5831 5832 5830 5829 5827 5828 5828 5828 5829 5828 5828 5828 5829 5829 5829 5829 5828 5828 5829 5829 5829 5829 5829 5828 5827 5826 5826 5826 5826 5826 5825 5825 5824 5823 5823 5822 5821
5816 5819 5819 5824 5823 5824 5824 5825 5825 5824 5823 5823 5823 5824 5824 5824 5824 5824 5824 5824 5824 5824 5824 5824 5824 5824 5823 5823 5823 5823 5822 5821 5820 5819 5819 5818 5816 5816 5816 5815 5814 5813 5812 5811
5809 5811 5812 5814 5814 5816 5817 5818 5818 5818 5817 5817 5817 5818 5819 5819 5819 5819 5819 5819 5819 5819 5818 5818 5818 5818 5817 5817 5816 5815 5815 5814 5812 5811 5810 5809 5809 5808 5806 5805 5804 5803 5801 5800
5801 5804 5806 5808 5806 5808 5811 5811 5811 5812 5812 5812 5812 5813 5815 5814 5814 5814 5814 5813 5813 5813 5812 5812 5812 5811 5810 5809 5808 5807 5806 5805 5804 5802 5801 5800 5799 5798 5796 5795 5793 5792 5790 5789
5792 5796 5798 5799 5800 5802 5804 5804 5805 5805 5806 5807 5807 5808 5808 5808 5808 5808 5808 5807 5807 5807 5806 5805 5805 5804 5803 5802 5800 5799 5798 5796 5795 5793 5792 5790 5789 5787 5786 5784 5782 5780 5779 5777
5785 5789 5791 5791 5792 5793 5795 5796 5797 5798 5799 5800 5800 5800 5801 5801 5802 5802 5801 5801 5800 5800 5799 5798 5797 5796 5795 5794 5792 5790 5789 5787 5785 5784 5782 5780 5779 5777 5775 5773 5771 5770 5767 5765
5775 5780 5782 5783 5784 5783 5787 5790 5792 5792 5794 5794 5794 5795 5795 5795 5795 5795 5795 5794 5794 5793 5792 5791 5790 5789 5787 5785 5783 5781 5779 5778 5776 5774 5772 5770 5768 5767 5765 5763 5760 5758 5756 5753
5767 5770 5773 5776 5778 5779 5782 5785 5786 5787 5788 5788 5788 5788 5788 5788 5788 5788 5788 5787 5786 5785 5785 5783 5782 5781 5779 5777 5775 5773 5770 5768 5767 5765 5762 5760 5758 5756 5753 5751 5748 5746 5743 5739
5762 5765 5767 5770 5772 5774 5776 5778 5779 5781 5782 5782 5782 5782 5782 5781 5781 5781 5780 5780 5779 5778 5776 5775 5774 5772 5770 5768 5766 5763 5761 5759 5757 5754 5752 5750 5748 5745 5742 5739 5735 5732 5729 5725
5757 5759 5761 5763 5765 5768 5770 5772 5773 5774 5775 5775 5775 5775 5775 5775 5774 5773 5773 5771 5770 5769 5768 5766 5764 5762 5760 5758 5756 5754 5751 5749 5746 5743 5741 5738 5735 5732 5728 5725 5722 5718 5714 5709
5751 5753 5756 5758 5760 5763 5765 5766 5767 5767 5768 5768 5768 5768 5768 5768 5767 5766 5765 5763 5762 5760 5758 5756 5754 5752 5750 5748 5746 5743 5740 5737 5735 5732 5729 5725 5722 5719 5715 5711 5707 5702 5698 5693
5748 5750 5752 5754 5756 5757 5759 5760 5760 5761 5761 5761 5761 5761 5761 5760 5759 5758 5757 5755 5753 5751 5749 5747 5744 5742 5740 5737 5735 5732 5729 5726 5723 5719 5716 5712 5708 5704 5700 5695 5691 5685 5680 5675
5745 5746 5748 5750 5751 5752 5753 5753 5754 5755 5755 5754 5754 5754 5753 5752 5751 5750 5748 5746 5744 5742 5740 5737 5735 5732 5729 5726 5723 5720 5717 5713 5710 5706 5702 5698 5694 5689 5684 5679 5674 5669 5663 5658
5741 5742 5743 5744 5745 5746 5747 5748 5748 5748 5748 5747 5747 5746 5746 5744 5743 5741 5739 5737 5735 5732 5730 5727 5724 5721 5718 5715 5711 5708 5704 5701 5697 5692 5688 5684 5679 5674 5669 5663 5658 5652 5647 5641
5737 5738 5739 5740 5740 5741 5741 5741 5741 5741 5740 5740 5739 5738 5737 5736 5734 5732 5730 5728 5725 5722 5719 5716 5713 5709 5706 5703 5699 5695 5691 5687 5683 5678 5674 5669 5664 5658 5653 5648 5642 5637 5631 5625
5733 5734 5734 5735 5735 5735 5735 5734 5734 5734 5733 5732 5731 5730 5729 5727 5725 5722 5720 5717 5714 5711 5708 5705 5702 5698 5694 5691 5686 5682 5678 5673 5669 5664 5659 5654 5649 5644 5638 5633 5627 5622 5616 5611
5728 5728 5729 5729 5729 5728 5728 5728 5727 5726 5726 5724 5723 5721 5720 5717 5715 5713 5710 5707 5704 5701 5697 5694 5690 5686 5683 5678 5674 5669 5665 5660 5655 5650 5645 5640 5635 5629 5624 5619 5613 5608 5603 5599
5722 5722 5722 5722 5722 5722 5721 5720 5720 5718 5717 5716 5714 5712 5710 5708 5705 5703 5699 5696 5693 5690 5686 5682 5678 5674 5670 5665 5660 5656 5652 5647 5642 5637 5632 5627 5621 5616 5611 5606 5601 5597 5592 5588
5716 5716 5716 5715 5715 5714 5713 5713 5711 5710 5709 5707 5705 5703 5700 5698 5695 5692 5688 5685 5682 5678 5674 5670 5666 5662 5657 5653 5648 5644 5639 5634 5629 5624 5619 5614 5610 5605 5600 5596 5591 5587 5583 5579
5710 5709 5709 5708 5707 5706 5705 5704 5703 5701 5699 5697 5695 5692 5690 5687 5684 5681 5678 5674 5670 5666 5662 5658 5654 5649 5645 5641 5636 5631 5627 5622 5618 5613 5608 5604 5599 5595 5591 5587 5583 5579 5575 5572
5702 5702 5701 5700 5699 5698 5696 5695 5693 5691 5689 5687 5685 5682 5679 5676 5673 5670 5666 5662 5658 5655 5651 5647 5642 5638 5633 5629 5625 5621 5616 5612 5607 5603 5599 5595 5591 5587 5583 5579 5576 5572 5569 5565
5694 5694 5693 5691 5690 5689 5687 5685 5683 5681 5679 5677 5674 5671 5668 5665 5662 5658 5655 5651 5647 5644 5640 5635 5631 5627 5623 5619 5615 5611 5607 5603 5598 5594 5591 5587 5583 5580 5576 5573 5570 5567 5563 5560
5686 5685 5684 5683 5681 5679 5677 5676 5673 5671 5669 5666 5663 5660 5657 5654 5651 5647 5644 5640 5637 5633 5630 5626 5622 5618 5614 5611 5607 5603 5599 5595 5591 5587 5584 5580 5577 5574 5571 5568 5565 5562 5559 5556
5677 5676 5675 5673 5672 5670 5667 5665 5663 5661 5658 5655 5653 5650 5646 5643 5640 5637 5634 5631 5627 5623 5620 5617 5614 5610 5606 5603 5599 5595 5592 5588 5585 5581 5578 5575 5572 5569 5566 5563 5560 5557 5555 5552
5668 5667 5666 5664 5662 5660 5658 5656 5653 5651 5648 5646 5643 5640 5637 5634 5631 5628 5625 5622 5619 5615 5612 5609 5606 5602 5599 5596 5592 5589 5585 5582 5579 5576 5573 5570 5567 5564 5561 5559 5556 5553 5551 5548